Valparaiso, IN

9:46 PM CDT on August 24, 2016 (GMT -0500)
Porter County Municipal

Weather History for KVPZ - March, 2012

Change the Weather History Date:

Monday, March 5, 2012

  Actual Average Record
Temperature  
Mean Temperature 29 °F 34 °F  
Max Temperature 35 °F 42 °F 76 °F (1983)
Min Temperature 23 °F 25 °F -3 °F (1978)
Degree Days  
Heating Degree Days 36 31  
Month to date heating degree days 159 160  
Since 1 July heating degree days 4892  
Cooling Degree Days 0 0  
Month to date cooling degree days 0 0  
Year to date cooling degree days 0 0  
Moisture  
Dew Point 21 °F    
Average Humidity 75    
Maximum Humidity 93    
Minimum Humidity 50    
Precipitation  
Precipitation 0.05 in 0.08 in 1.20 in (2004)
Month to date precipitation 0.21 0.39  
Year to date precipitation 3.57 3.56  
Sea Level Pressure  
Sea Level Pressure 30.18 in    
Wind  
Wind Speed 9 mph (NW)    
Max Wind Speed 15 mph    
Max Gust Speed 23 mph    
Visibility 7 miles    
Events Snow    
T = Trace of Precipitation, MM = Missing Value Source: NWS Daily Summary

Daily Weather History Graph

Daily Weather History Graph

Search for Another Location

Airport or City:

Trip Planner

Search our weather history database for the weather conditions in past years. The results will help you decide how hot, cold, wet, or windy it might be!

Date:

Astronomy

Mar. 05, 2012 Rise Set
Actual Time 6:15 AM CST 5:43 PM CST
Civil Twilight 5:47 AM CST 6:11 PM CST
Nautical Twilight 5:15 AM CST 6:43 PM CST
Astronomical Twilight 4:43 AM CST 7:15 PM CST
Moon 3:00 PM CST (3/5) 4:16 AM CST (3/5)
Length of Visible Light 12h 23m
Length of Day
11h 28m
Waxing Gibbous, 91% of the Moon is Illuminated
Mar 5
Waxing Gibbous
Mar 8
Full
Mar 14
Last Quarter
Mar 22
New
Mar 30
First Quarter

Hourly Weather History & Observations

Time (CST) Temp. Windchill Dew Point Humidity Pressure Visibility Wind Dir Wind Speed Gust Speed Precip Events Conditions
12:08 AM 28.4 °F 21.2 °F 24.8 °F 86% 29.95 in 2.5 mi North 6.9 mph - 0.00 in Snow Light Snow
12:15 AM 28.4 °F 21.2 °F 24.8 °F 86% 29.96 in 0.8 mi NNE 6.9 mph - 0.01 in Snow Light Snow
12:23 AM 26.6 °F 19.1 °F 24.8 °F 93% 29.96 in 0.8 mi NNE 6.9 mph - 0.01 in Snow Light Snow
12:48 AM 28.4 °F 20.4 °F 26.6 °F 93% 29.97 in 1.2 mi North 8.1 mph - 0.04 in Snow Light Snow
12:53 AM 28.0 °F 19.3 °F 25.0 °F 88% 30.00 in 2.5 mi North 9.2 mph - 0.04 in Snow Light Snow
1:01 AM 26.6 °F 20.0 °F 24.8 °F 93% 29.98 in 5.0 mi North 5.8 mph - 0.00 in Snow Light Snow
1:03 AM 26.6 °F 20.0 °F 24.8 °F 93% 29.98 in 5.0 mi North 5.8 mph - 0.00 in Snow Light Snow
1:17 AM 26.6 °F 18.2 °F 24.8 °F 93% 29.99 in 1.8 mi North 8.1 mph - 0.00 in Snow Light Snow
1:26 AM 26.6 °F 21.2 °F 24.8 °F 93% 29.99 in 2.0 mi North 4.6 mph - 0.00 in Snow Light Snow
1:29 AM 26.6 °F 19.1 °F 24.8 °F 93% 29.99 in 3.0 mi North 6.9 mph - 0.00 in Snow Light Snow
1:53 AM 27.0 °F 19.5 °F 25.0 °F 92% 30.04 in 2.5 mi North 6.9 mph - 0.00 in Snow Light Snow
1:57 AM 26.6 °F 15.7 °F 24.8 °F 93% 30.01 in 4.0 mi North 12.7 mph 20.7 mph 0.00 in Snow Light Snow
2:07 AM 26.6 °F 17.5 °F 24.8 °F 93% 30.02 in 2.5 mi NNW 9.2 mph - 0.00 in Snow Light Snow
2:09 AM 26.6 °F 18.2 °F 24.8 °F 93% 30.02 in 1.8 mi North 8.1 mph - 0.00 in Snow Light Snow
2:24 AM 26.6 °F 21.2 °F 24.8 °F 93% 30.03 in 3.0 mi North 4.6 mph - 0.01 in Snow Light Snow
2:46 AM 26.6 °F 15.7 °F 21.2 °F 80% 30.04 in 10.0 mi NNW 12.7 mph 19.6 mph 0.01 in   Overcast
2:53 AM 27.0 °F 16.1 °F 21.0 °F 78% 30.08 in 6.0 mi NNW 12.7 mph 19.6 mph 0.01 in Snow Light Snow
3:00 AM 26.6 °F 16.8 °F 21.2 °F 80% 30.05 in 2.5 mi North 10.4 mph 19.6 mph 0.00 in Snow Light Snow
3:12 AM 26.6 °F 18.2 °F 21.2 °F 80% 30.06 in 3.0 mi NNW 8.1 mph - 0.00 in Snow Light Snow
3:42 AM 26.6 °F 16.2 °F 17.6 °F 69% 30.08 in 8.0 mi North 11.5 mph 18.4 mph 0.00 in Snow Light Snow
3:53 AM 27.0 °F 18.0 °F 18.0 °F 69% 30.12 in 9.0 mi North 9.2 mph 19.6 mph 0.00 in   Overcast
4:53 AM 26.1 °F 16.8 °F 18.0 °F 71% 30.16 in 10.0 mi NNW 9.2 mph 20.7 mph 0.00 in   Overcast
5:53 AM 24.1 °F 15.2 °F 15.1 °F 69% 30.21 in 10.0 mi NNW 8.1 mph - N/A   Clear
6:53 AM 24.1 °F 16.0 °F 15.1 °F 69% 30.25 in 10.0 mi NW 6.9 mph - N/A   Clear
7:38 AM 26.6 °F 16.2 °F 17.6 °F 69% 30.26 in 10.0 mi WNW 11.5 mph - N/A   Mostly Cloudy
7:53 AM 25.0 °F 14.8 °F 18.0 °F 75% 30.30 in 10.0 mi WNW 10.4 mph - N/A   Overcast
8:53 AM 27.0 °F 17.3 °F 17.1 °F 66% 30.32 in 10.0 mi NW 10.4 mph - N/A   Mostly Cloudy
9:02 AM 26.6 °F 17.5 °F 15.8 °F 64% 30.30 in 10.0 mi NW 9.2 mph - N/A   Scattered Clouds
9:12 AM 28.4 °F 18.5 °F 15.8 °F 59% 30.30 in 10.0 mi WNW 11.5 mph - N/A   Mostly Cloudy
9:23 AM 28.4 °F 18.0 °F 15.8 °F 59% 30.31 in 10.0 mi WNW 12.7 mph - N/A   Scattered Clouds
9:53 AM 28.0 °F 19.3 °F 15.1 °F 58% 30.35 in 10.0 mi NW 9.2 mph - N/A   Partly Cloudy
10:53 AM 28.9 °F 21.1 °F 15.1 °F 56% 30.38 in 10.0 mi NW 8.1 mph - N/A   Mostly Cloudy
11:53 AM 30.0 °F 22.4 °F 14.0 °F 51% 30.40 in 10.0 mi West 8.1 mph - N/A   Partly Cloudy
12:53 PM 30.9 °F 25.2 °F 14.0 °F 50% 30.39 in 10.0 mi West 5.8 mph - N/A   Clear
1:53 PM 32.0 °F 24.8 °F 16.0 °F 52% 30.38 in 10.0 mi SW 8.1 mph - N/A   Partly Cloudy
2:53 PM 33.1 °F 26.1 °F 18.0 °F 54% 30.38 in 10.0 mi SSW 8.1 mph - N/A   Partly Cloudy
3:53 PM 34.0 °F 26.6 °F 19.0 °F 54% 30.37 in 10.0 mi SW 9.2 mph - N/A   Partly Cloudy
4:53 PM 34.0 °F 26.6 °F 19.9 °F 56% 30.37 in 10.0 mi SSW 9.2 mph - N/A   Clear
5:53 PM 33.1 °F 28.7 °F 21.0 °F 61% 30.35 in 10.0 mi South 4.6 mph - N/A   Scattered Clouds
6:53 PM 32.0 °F 25.6 °F 21.9 °F 66% 30.35 in 10.0 mi South 6.9 mph - N/A   Overcast
7:53 PM 33.1 °F 24.4 °F 23.0 °F 66% 30.36 in 10.0 mi SSW 11.5 mph - N/A   Overcast
8:53 PM 30.9 °F 22.8 °F 23.0 °F 72% 30.38 in 10.0 mi SSW 9.2 mph - N/A   Partly Cloudy
9:53 PM 30.0 °F 22.4 °F 23.0 °F 75% 30.36 in 10.0 mi South 8.1 mph - N/A   Clear
10:53 PM 30.0 °F 21.7 °F 23.0 °F 75% 30.34 in 10.0 mi South 9.2 mph - N/A   Clear
11:53 PM 28.9 °F 20.4 °F 23.0 °F 78% 30.32 in 10.0 mi SSE 9.2 mph - N/A   Clear